Change the Weather History Date:

Thursday, February 21, 2013

  Actual Average (KAIT) Record (KAIT)
Temperature  
Mean Temperature 6 °F -  
Max Temperature 24 °F 30 °F 54 °F (1961)
Min Temperature -13 °F 6 °F -30 °F (1963)
Degree Days  
Heating Degree Days 60    
Moisture  
Dew Point 3 °F    
Average Humidity 72    
Maximum Humidity 93    
Minimum Humidity 54    
Precipitation  
Precipitation 0.00 in - - ()
Sea Level Pressure  
Sea Level Pressure 30.34 in    
Wind  
Wind Speed 4 mph (ENE)    
Max Wind Speed 13 mph    
Max Gust Speed 18 mph    
Visibility 10 miles    
Events      
Averages and records for this station are not official NWS values.
T = Trace of Precipitation, MM = Missing Value Source: NWS Daily Summary

Daily Weather History Graph

Daily Weather History Graph

Search for Another Location

Airport or City:

Trip Planner

Search our weather history database for the weather conditions in past years. The results will help you decide how hot, cold, wet, or windy it might be!

Date:

Astronomy

Feb. 21, 2013 Rise Set
Actual Time 7:06 AM CST 5:47 PM CST
Civil Twilight 6:35 AM CST 6:18 PM CST
Nautical Twilight 6:00 AM CST 6:53 PM CST
Astronomical Twilight 5:25 AM CST 7:28 PM CST
Moon 1:53 PM CST (2/21) 4:21 AM CST (2/21)
Length of Visible Light 11h 42m
Length of Day
10h 41m
Waxing Gibbous, 84% of the Moon is Illuminated
Feb 21
Waxing Gibbous
Feb 25
Full
Mar 4
Last Quarter
Mar 11
New
Mar 19
First Quarter

Hourly Weather History & Observations

Time (CST) Temp. Windchill Dew Point Humidity Pressure Visibility Wind Dir Wind Speed Gust Speed Precip Events Conditions
12:12 AM 3.2 °F - -7.6 °F 61% 30.41 in 10.0 mi Calm Calm - N/A   Clear
12:33 AM -0.4 °F - -11.2 °F 60% 30.41 in 10.0 mi Calm Calm - N/A   Clear
12:53 AM -2.2 °F -12.5 °F -13.0 °F 60% 30.41 in 10.0 mi ENE 4.6 mph - N/A   Clear
1:12 AM -4.0 °F -12.4 °F -13.0 °F 65% 30.41 in 10.0 mi NE 3.5 mph - N/A   Scattered Clouds
1:33 AM -2.2 °F -10.4 °F -13.0 °F 60% 30.41 in 10.0 mi ENE 3.5 mph - N/A   Scattered Clouds
1:53 AM -0.4 °F - -13.0 °F 55% 30.41 in 10.0 mi Calm Calm - N/A   Scattered Clouds
2:10 AM -0.4 °F - -11.2 °F 60% 30.41 in 10.0 mi Calm Calm - N/A   Scattered Clouds
2:33 AM 1.4 °F - -9.4 °F 61% 30.41 in 7.0 mi Calm Calm - N/A   Mostly Cloudy
2:53 AM -2.2 °F - -13.0 °F 60% 30.41 in 10.0 mi Calm Calm - N/A   Mostly Cloudy
3:13 AM -4.0 °F - -11.2 °F 71% 30.41 in 10.0 mi Calm Calm - N/A   Mostly Cloudy
3:30 AM -5.8 °F - -13.0 °F 71% 30.42 in 10.0 mi Calm Calm - N/A   Mostly Cloudy
3:52 AM -5.8 °F - -14.8 °F 65% 30.43 in 10.0 mi Calm Calm - N/A   Scattered Clouds
4:12 AM -7.6 °F - -14.8 °F 71% 30.44 in 10.0 mi Calm Calm - N/A   Clear
4:33 AM -9.4 °F - -16.6 °F 71% 30.43 in 10.0 mi Calm Calm - N/A   Clear
5:12 AM -9.4 °F - -16.6 °F 71% 30.43 in 10.0 mi Calm Calm - N/A   Clear
5:52 AM -9.4 °F - -14.8 °F 77% 30.42 in 10.0 mi Calm Calm - N/A   Clear
6:12 AM -9.4 °F - -16.6 °F 71% 30.42 in 10.0 mi Calm Calm - N/A   Clear
6:33 AM -11.2 °F -20.6 °F -16.6 °F 77% 30.40 in 10.0 mi NNE 3.5 mph - N/A   Clear
6:53 AM -13.0 °F -25.1 °F -18.4 °F 77% 30.36 in 10.0 mi North 4.6 mph - N/A   Clear
7:12 AM -9.4 °F - -14.8 °F 77% 30.36 in 10.0 mi Calm Calm - N/A   Clear
7:32 AM -7.6 °F - -13.0 °F 77% 30.36 in 10.0 mi Calm Calm - N/A   Clear
7:52 AM -5.8 °F - -13.0 °F 71% 30.38 in 10.0 mi Calm Calm - N/A   Clear
8:12 AM -4.0 °F -14.6 °F -9.4 °F 78% 30.43 in 10.0 mi South 4.6 mph - N/A   Clear
8:32 AM -0.4 °F - -9.4 °F 66% 30.47 in 10.0 mi Calm Calm - N/A   Clear
8:52 AM 1.4 °F - -7.6 °F 66% 30.46 in 10.0 mi Calm Calm - N/A   Clear
9:13 AM 1.4 °F -6.2 °F -7.6 °F 66% 30.44 in 10.0 mi NNE 3.5 mph - N/A   Scattered Clouds
9:30 AM 3.2 °F -4.2 °F -5.8 °F 66% 30.43 in 7.0 mi NNW 3.5 mph - N/A   Overcast
9:52 AM 5.0 °F -2.1 °F -2.2 °F 72% 30.42 in 10.0 mi North 3.5 mph - N/A   Overcast
10:12 AM 10.4 °F 4.0 °F 1.4 °F 67% 30.41 in 7.0 mi East 3.5 mph - N/A   Overcast
10:24 AM 12.2 °F 4.3 °F 3.2 °F 67% 30.41 in 10.0 mi ENE 4.6 mph - N/A   Overcast
11:13 AM 17.6 °F 7.3 °F 8.6 °F 68% 30.40 in 10.0 mi East 8.1 mph - N/A   Clear
11:31 AM 19.4 °F 9.5 °F 10.4 °F 68% 30.40 in 10.0 mi ENE 8.1 mph - N/A   Clear
11:52 AM 21.2 °F 12.6 °F 10.4 °F 63% 30.39 in 10.0 mi East 6.9 mph - N/A   Clear
12:12 PM 21.2 °F 10.9 °F 10.4 °F 63% 30.38 in 10.0 mi East 9.2 mph - N/A   Clear
12:32 PM 23.0 °F 13.9 °F 10.4 °F 59% 30.36 in 10.0 mi East 8.1 mph - N/A   Clear
12:52 PM 23.0 °F 13.9 °F 10.4 °F 59% 30.35 in 10.0 mi ENE 8.1 mph - N/A   Clear
1:12 PM 23.0 °F 13.1 °F 12.2 °F 63% 30.35 in 10.0 mi East 9.2 mph - N/A   Clear
1:33 PM 24.8 °F 15.3 °F 12.2 °F 59% 30.34 in 10.0 mi ENE 9.2 mph - N/A   Clear
1:53 PM 24.8 °F 15.3 °F 12.2 °F 59% 30.32 in 10.0 mi NE 9.2 mph - N/A   Clear
2:13 PM 24.8 °F 14.6 °F 10.4 °F 54% 30.31 in 10.0 mi ENE 10.4 mph - N/A   Clear
2:33 PM 24.8 °F 16.1 °F 10.4 °F 54% 30.30 in 10.0 mi NE 8.1 mph - N/A   Clear
2:53 PM 24.8 °F 16.1 °F 10.4 °F 54% 30.29 in 10.0 mi ENE 8.1 mph - N/A   Clear
3:13 PM 24.8 °F 15.3 °F 12.2 °F 59% 30.29 in 10.0 mi ENE 9.2 mph - N/A   Clear
3:31 PM 24.8 °F 14.6 °F 12.2 °F 59% 30.29 in 10.0 mi ENE 10.4 mph - N/A   Clear
3:52 PM 23.0 °F 13.1 °F 12.2 °F 63% 30.29 in 10.0 mi East 9.2 mph - N/A   Clear
4:12 PM 23.0 °F 12.4 °F 12.2 °F 63% 30.29 in 10.0 mi East 10.4 mph - N/A   Clear
4:31 PM 23.0 °F 12.4 °F 12.2 °F 63% 30.29 in 10.0 mi ENE 10.4 mph 16.1 mph N/A   Clear
4:52 PM 23.0 °F 12.4 °F 12.2 °F 63% 30.28 in 10.0 mi ENE 10.4 mph - N/A   Clear
5:13 PM 21.2 °F 8.9 °F 14.0 °F 74% 30.28 in 10.0 mi ENE 12.7 mph 17.3 mph N/A   Clear
5:33 PM 21.2 °F 10.9 °F 14.0 °F 74% 30.29 in 10.0 mi East 9.2 mph - N/A   Mostly Cloudy
5:53 PM 21.2 °F 8.9 °F 15.8 °F 80% 30.28 in 10.0 mi East 12.7 mph 18.4 mph N/A   Overcast
6:13 PM 21.2 °F 9.5 °F 17.6 °F 86% 30.27 in 10.0 mi ENE 11.5 mph 16.1 mph N/A   Overcast
6:32 PM 21.2 °F 8.9 °F 17.6 °F 86% 30.26 in 10.0 mi ENE 12.7 mph 16.1 mph N/A   Overcast
6:53 PM 21.2 °F 11.7 °F 17.6 °F 86% 30.25 in 10.0 mi ENE 8.1 mph - N/A   Overcast
7:13 PM 21.2 °F 9.5 °F 17.6 °F 86% 30.26 in 10.0 mi ENE 11.5 mph 17.3 mph N/A   Overcast
7:32 PM 21.2 °F 10.9 °F 19.4 °F 93% 30.24 in 10.0 mi ENE 9.2 mph - N/A   Overcast
7:53 PM 21.2 °F 12.6 °F 17.6 °F 86% 30.22 in 10.0 mi ENE 6.9 mph - N/A   Overcast
8:12 PM 21.2 °F 11.7 °F 19.4 °F 93% 30.22 in 10.0 mi NE 8.1 mph - N/A   Overcast
8:31 PM 21.2 °F 11.7 °F 19.4 °F 93% 30.22 in 10.0 mi NE 8.1 mph 16.1 mph N/A   Overcast
9:12 PM 21.2 °F 13.6 °F 19.4 °F 93% 30.21 in 10.0 mi NE 5.8 mph - N/A   Overcast
9:33 PM 21.2 °F 13.6 °F 19.4 °F 93% 30.20 in 5.0 mi NE 5.8 mph - N/A   Overcast
9:53 PM 21.2 °F 13.6 °F 19.4 °F 93% 30.19 in 10.0 mi NE 5.8 mph - N/A   Overcast
10:13 PM 21.2 °F 13.6 °F 19.4 °F 93% 30.18 in 10.0 mi NE 5.8 mph - N/A   Overcast
10:33 PM 21.2 °F 12.6 °F 19.4 °F 93% 30.17 in 10.0 mi NNE 6.9 mph - N/A   Overcast
10:53 PM 21.2 °F 14.9 °F 19.4 °F 93% 30.16 in 10.0 mi NNE 4.6 mph - N/A   Overcast
11:13 PM 21.2 °F 14.9 °F 19.4 °F 93% 30.16 in 10.0 mi NE 4.6 mph - N/A   Overcast
11:33 PM 21.2 °F 14.9 °F 19.4 °F 93% 30.15 in 10.0 mi NNE 4.6 mph - N/A   Overcast